Year,Month,Day,Hour,Minute,Value (Times are PST for temperature in C)
2008,07,06,00,00,15.40
2008,07,06,00,01,15.40
2008,07,06,00,02,15.40
2008,07,06,00,03,15.40
2008,07,06,00,04,15.40
2008,07,06,00,05,15.40
2008,07,06,00,06,15.40
2008,07,06,00,07,15.40
2008,07,06,00,08,15.40
2008,07,06,00,09,15.40
2008,07,06,00,10,15.40
2008,07,06,00,11,15.40
2008,07,06,00,12,15.40
2008,07,06,00,13,15.30
2008,07,06,00,14,15.30
2008,07,06,00,15,15.30
2008,07,06,00,16,15.30
2008,07,06,00,17,15.30
2008,07,06,00,18,15.30
2008,07,06,00,19,15.30
2008,07,06,00,20,15.30
2008,07,06,00,21,15.30
2008,07,06,00,22,15.30
2008,07,06,00,23,15.30
2008,07,06,00,24,15.30
2008,07,06,00,25,15.30
2008,07,06,00,26,15.30
2008,07,06,00,27,15.30
2008,07,06,00,28,15.30
2008,07,06,00,29,15.30
2008,07,06,00,30,15.30
2008,07,06,00,31,15.30
2008,07,06,00,32,15.30
2008,07,06,00,33,15.30
2008,07,06,00,34,15.30
2008,07,06,00,35,15.30
2008,07,06,00,36,15.30
2008,07,06,00,37,15.30
2008,07,06,00,38,15.30
2008,07,06,00,39,15.30
2008,07,06,00,40,15.30
2008,07,06,00,41,15.30
2008,07,06,00,42,15.30
2008,07,06,00,43,15.30
2008,07,06,00,44,15.30
2008,07,06,00,45,15.30
2008,07,06,00,46,15.30
2008,07,06,00,47,15.30
2008,07,06,00,48,15.30
2008,07,06,00,49,15.30
2008,07,06,00,50,15.30
2008,07,06,00,51,15.30
2008,07,06,00,52,15.30
2008,07,06,00,53,15.30
2008,07,06,00,54,15.30
2008,07,06,00,55,15.30
2008,07,06,00,56,15.30
2008,07,06,00,57,15.30
2008,07,06,00,58,15.30
2008,07,06,00,59,15.20
2008,07,06,01,00,15.20
2008,07,06,01,01,15.20
2008,07,06,01,02,15.20
2008,07,06,01,03,15.20
2008,07,06,01,04,15.20
2008,07,06,01,05,15.20
2008,07,06,01,06,15.20
2008,07,06,01,07,15.20
2008,07,06,01,08,15.20
2008,07,06,01,09,15.20
2008,07,06,01,10,15.20
2008,07,06,01,11,15.20
2008,07,06,01,12,15.20
2008,07,06,01,13,15.20
2008,07,06,01,14,15.10
2008,07,06,01,15,15.10
2008,07,06,01,16,15.10
2008,07,06,01,17,15.10
2008,07,06,01,18,15.10
2008,07,06,01,19,15.10
2008,07,06,01,20,15.10
2008,07,06,01,21,15.10
2008,07,06,01,22,15.00
2008,07,06,01,23,15.00
2008,07,06,01,24,15.00
2008,07,06,01,25,15.00
2008,07,06,01,26,15.00
2008,07,06,01,27,15.00
2008,07,06,01,28,15.00
2008,07,06,01,29,15.00
2008,07,06,01,30,15.00
2008,07,06,01,31,15.00
2008,07,06,01,32,15.00
2008,07,06,01,33,15.00
2008,07,06,01,34,15.00
2008,07,06,01,35,14.90
2008,07,06,01,36,14.90
2008,07,06,01,37,14.90
2008,07,06,01,38,14.90
2008,07,06,01,39,14.90
2008,07,06,01,40,14.90
2008,07,06,01,41,14.90
2008,07,06,01,42,14.90
2008,07,06,01,43,14.90
2008,07,06,01,44,14.80
2008,07,06,01,45,14.80
2008,07,06,01,46,14.80
2008,07,06,01,47,14.80
2008,07,06,01,48,14.80
2008,07,06,01,49,14.80
2008,07,06,01,50,14.80
2008,07,06,01,51,14.80
2008,07,06,01,52,14.80
2008,07,06,01,53,14.80
2008,07,06,01,54,14.80
2008,07,06,01,55,14.80
2008,07,06,01,56,14.80
2008,07,06,01,57,14.80
2008,07,06,01,58,14.80
2008,07,06,01,59,14.80
2008,07,06,02,00,14.80
2008,07,06,02,01,14.80
2008,07,06,02,02,14.80
2008,07,06,02,03,14.80
2008,07,06,02,04,14.80
2008,07,06,02,05,14.80
2008,07,06,02,06,14.70
2008,07,06,02,07,14.70
2008,07,06,02,08,14.70
2008,07,06,02,09,14.70
2008,07,06,02,10,14.70
2008,07,06,02,11,14.70
2008,07,06,02,12,14.70
2008,07,06,02,13,14.70
2008,07,06,02,14,14.70
2008,07,06,02,15,14.70
2008,07,06,02,16,14.70
2008,07,06,02,17,14.70
2008,07,06,02,18,14.70
2008,07,06,02,19,14.70
2008,07,06,02,20,14.60
2008,07,06,02,21,14.60
2008,07,06,02,22,14.60
2008,07,06,02,23,14.60
2008,07,06,02,24,14.60
2008,07,06,02,25,14.60
2008,07,06,02,26,14.60
2008,07,06,02,27,14.60
2008,07,06,02,28,14.60
2008,07,06,02,29,14.60
2008,07,06,02,30,14.60
2008,07,06,02,31,14.60
2008,07,06,02,32,14.60
2008,07,06,02,33,14.60
2008,07,06,02,34,14.50
2008,07,06,02,35,14.50
2008,07,06,02,36,14.50
2008,07,06,02,37,14.50
2008,07,06,02,38,14.50
2008,07,06,02,39,14.50
2008,07,06,02,40,14.50
2008,07,06,02,41,14.50
2008,07,06,02,42,14.50
2008,07,06,02,43,14.50
2008,07,06,02,44,14.40
2008,07,06,02,45,14.40
2008,07,06,02,46,14.40
2008,07,06,02,47,14.40
2008,07,06,02,48,14.40
2008,07,06,02,49,14.40
2008,07,06,02,50,14.40
2008,07,06,02,51,14.30
2008,07,06,02,52,14.30
2008,07,06,02,53,14.30
2008,07,06,02,54,14.30
2008,07,06,02,55,14.30
2008,07,06,02,56,14.30
2008,07,06,02,57,14.20
2008,07,06,02,58,14.20
2008,07,06,02,59,14.20
2008,07,06,03,00,14.20
2008,07,06,03,01,14.20
2008,07,06,03,02,14.20
2008,07,06,03,03,14.20
2008,07,06,03,04,14.20
2008,07,06,03,05,14.20
2008,07,06,03,06,14.20
2008,07,06,03,07,14.20
2008,07,06,03,08,14.20
2008,07,06,03,09,14.20
2008,07,06,03,10,14.20
2008,07,06,03,11,14.20
2008,07,06,03,12,14.20
2008,07,06,03,13,14.20
2008,07,06,03,14,14.20
2008,07,06,03,15,14.20
2008,07,06,03,16,14.20
2008,07,06,03,17,14.20
2008,07,06,03,18,14.20
2008,07,06,03,19,14.20
2008,07,06,03,20,14.20
2008,07,06,03,21,14.20
2008,07,06,03,22,14.20
2008,07,06,03,23,14.20
2008,07,06,03,24,14.20
2008,07,06,03,25,14.20
2008,07,06,03,26,14.20
2008,07,06,03,27,14.20
2008,07,06,03,28,14.20
2008,07,06,03,29,14.20
2008,07,06,03,30,14.20
2008,07,06,03,31,14.20
2008,07,06,03,32,14.20
2008,07,06,03,33,14.20
2008,07,06,03,34,14.20
2008,07,06,03,35,14.20
2008,07,06,03,36,14.20
2008,07,06,03,37,14.20
2008,07,06,03,38,14.20
2008,07,06,03,39,14.20
2008,07,06,03,40,14.20
2008,07,06,03,41,14.20
2008,07,06,03,42,14.20
2008,07,06,03,43,14.20
2008,07,06,03,44,14.20
2008,07,06,03,45,14.20
2008,07,06,03,46,14.20
2008,07,06,03,47,14.20
2008,07,06,03,48,14.20
2008,07,06,03,49,14.20
2008,07,06,03,50,14.20
2008,07,06,03,51,14.20
2008,07,06,03,52,14.20
2008,07,06,03,53,14.20
2008,07,06,03,54,14.20
2008,07,06,03,55,14.20
2008,07,06,03,56,14.20
2008,07,06,03,57,14.20
2008,07,06,03,58,14.20
2008,07,06,03,59,14.20
2008,07,06,04,00,14.20
2008,07,06,04,01,14.20
2008,07,06,04,02,14.20
2008,07,06,04,03,14.20
2008,07,06,04,04,14.20
2008,07,06,04,05,14.20
2008,07,06,04,06,14.20
2008,07,06,04,07,14.20
2008,07,06,04,08,14.20
2008,07,06,04,09,14.20
2008,07,06,04,10,14.20
2008,07,06,04,11,14.20
2008,07,06,04,12,14.20
2008,07,06,04,13,14.20
2008,07,06,04,14,14.20
2008,07,06,04,15,14.20
2008,07,06,04,16,14.20
2008,07,06,04,17,14.20
2008,07,06,04,18,14.20
2008,07,06,04,19,14.20
2008,07,06,04,20,14.20
2008,07,06,04,21,14.20
2008,07,06,04,22,14.20
2008,07,06,04,23,14.20
2008,07,06,04,24,14.20
2008,07,06,04,25,14.20
2008,07,06,04,26,14.20
2008,07,06,04,27,14.20
2008,07,06,04,28,14.20
2008,07,06,04,29,14.20
2008,07,06,04,30,14.20
2008,07,06,04,31,14.20
2008,07,06,04,32,14.20
2008,07,06,04,33,14.20
2008,07,06,04,34,14.20
2008,07,06,04,35,14.20
2008,07,06,04,36,14.20
2008,07,06,04,37,14.20
2008,07,06,04,38,14.20
2008,07,06,04,39,14.20
2008,07,06,04,40,14.30
2008,07,06,04,41,14.20
2008,07,06,04,42,14.20
2008,07,06,04,43,14.20
2008,07,06,04,44,14.20
2008,07,06,04,45,14.20
2008,07,06,04,46,14.20
2008,07,06,04,47,14.20
2008,07,06,04,48,14.20
2008,07,06,04,49,14.20
2008,07,06,04,50,14.20
2008,07,06,04,51,14.20
2008,07,06,04,52,14.20
2008,07,06,04,53,14.20
2008,07,06,04,54,14.20
2008,07,06,04,55,14.20
2008,07,06,04,56,14.20
2008,07,06,04,57,14.20
2008,07,06,04,58,14.20
2008,07,06,04,59,14.20
2008,07,06,05,00,14.20
2008,07,06,05,01,14.20
2008,07,06,05,02,14.20
2008,07,06,05,03,14.20
2008,07,06,05,04,14.20
2008,07,06,05,05,14.20
2008,07,06,05,06,14.20
2008,07,06,05,07,14.20
2008,07,06,05,08,14.20
2008,07,06,05,09,14.20
2008,07,06,05,10,14.20
2008,07,06,05,11,14.20
2008,07,06,05,12,14.20
2008,07,06,05,13,14.20
2008,07,06,05,14,14.20
2008,07,06,05,15,14.20
2008,07,06,05,16,14.20
2008,07,06,05,17,14.20
2008,07,06,05,18,14.20
2008,07,06,05,19,14.20
2008,07,06,05,20,14.20
2008,07,06,05,21,14.20
2008,07,06,05,22,14.20
2008,07,06,05,23,14.20
2008,07,06,05,24,14.20
2008,07,06,05,25,14.20
2008,07,06,05,26,14.20
2008,07,06,05,27,14.20
2008,07,06,05,28,14.20
2008,07,06,05,29,14.20
2008,07,06,05,30,14.20
2008,07,06,05,31,14.20
2008,07,06,05,32,14.20
2008,07,06,05,33,14.20
2008,07,06,05,34,14.20
2008,07,06,05,35,14.20
2008,07,06,05,36,14.20
2008,07,06,05,37,14.20
2008,07,06,05,38,14.20
2008,07,06,05,39,14.20
2008,07,06,05,40,14.20
2008,07,06,05,41,14.20
2008,07,06,05,42,14.20
2008,07,06,05,43,14.20
2008,07,06,05,44,14.20
2008,07,06,05,45,14.20
2008,07,06,05,46,14.20
2008,07,06,05,47,14.20
2008,07,06,05,48,14.20
2008,07,06,05,49,14.20
2008,07,06,05,50,14.20
2008,07,06,05,51,14.10
2008,07,06,05,52,14.10
2008,07,06,05,53,14.10
2008,07,06,05,54,14.10
2008,07,06,05,55,14.10
2008,07,06,05,56,14.10
2008,07,06,05,57,14.10
2008,07,06,05,58,14.10
2008,07,06,05,59,14.10
2008,07,06,06,00,14.10
2008,07,06,06,01,14.10
2008,07,06,06,02,14.10
2008,07,06,06,03,14.10
2008,07,06,06,04,14.00
2008,07,06,06,05,14.00
2008,07,06,06,06,14.00
2008,07,06,06,07,14.00
2008,07,06,06,08,14.00
2008,07,06,06,09,14.00
2008,07,06,06,10,14.00
2008,07,06,06,11,14.00
2008,07,06,06,12,14.00
2008,07,06,06,13,14.00
2008,07,06,06,14,14.00
2008,07,06,06,15,14.00
2008,07,06,06,16,14.00
2008,07,06,06,17,14.00
2008,07,06,06,18,14.00
2008,07,06,06,19,14.00
2008,07,06,06,20,14.00
2008,07,06,06,21,14.00
2008,07,06,06,22,14.00
2008,07,06,06,23,14.00
2008,07,06,06,24,13.90
2008,07,06,06,25,13.90
2008,07,06,06,26,13.90
2008,07,06,06,27,13.90
2008,07,06,06,28,13.90
2008,07,06,06,29,13.90
2008,07,06,06,30,13.90
2008,07,06,06,31,13.90
2008,07,06,06,32,13.90
2008,07,06,06,33,13.90
2008,07,06,06,34,13.90
2008,07,06,06,35,13.90
2008,07,06,06,36,13.90
2008,07,06,06,37,13.90
2008,07,06,06,38,13.90
2008,07,06,06,39,13.90
2008,07,06,06,40,13.90
2008,07,06,06,41,13.90
2008,07,06,06,42,13.90
2008,07,06,06,43,13.90
2008,07,06,06,44,13.90
2008,07,06,06,45,13.90
2008,07,06,06,46,13.90
2008,07,06,06,47,13.90
2008,07,06,06,48,13.90
2008,07,06,06,49,13.90
2008,07,06,06,50,13.90
2008,07,06,06,51,13.90
2008,07,06,06,52,13.90
2008,07,06,06,53,13.90
2008,07,06,06,54,13.90
2008,07,06,06,55,13.90
2008,07,06,06,56,13.90
2008,07,06,06,57,13.90
2008,07,06,06,58,13.90
2008,07,06,06,59,13.90
2008,07,06,07,00,13.90
2008,07,06,07,01,13.90
2008,07,06,07,02,13.90
2008,07,06,07,03,14.00
2008,07,06,07,04,14.00
2008,07,06,07,05,14.00
2008,07,06,07,06,14.00
2008,07,06,07,07,14.00
2008,07,06,07,08,14.00
2008,07,06,07,09,14.00
2008,07,06,07,10,14.10
2008,07,06,07,11,14.10
2008,07,06,07,12,14.10
2008,07,06,07,13,14.10
2008,07,06,07,14,14.10
2008,07,06,07,15,14.10
2008,07,06,07,16,14.20
2008,07,06,07,17,14.20
2008,07,06,07,18,14.20
2008,07,06,07,19,14.20
2008,07,06,07,20,14.20
2008,07,06,07,21,14.20
2008,07,06,07,22,14.20
2008,07,06,07,23,14.20
2008,07,06,07,24,14.20
2008,07,06,07,25,14.20
2008,07,06,07,26,14.20
2008,07,06,07,27,14.20
2008,07,06,07,28,14.20
2008,07,06,07,29,14.20
2008,07,06,07,30,14.20
2008,07,06,07,31,14.20
2008,07,06,07,32,14.20
2008,07,06,07,33,14.20
2008,07,06,07,34,14.20
2008,07,06,07,35,14.20
2008,07,06,07,36,14.20
2008,07,06,07,37,14.20
2008,07,06,07,38,14.20
2008,07,06,07,39,14.20
2008,07,06,07,40,14.20
2008,07,06,07,41,14.20
2008,07,06,07,42,14.20
2008,07,06,07,43,14.20
2008,07,06,07,44,14.20
2008,07,06,07,45,14.20
2008,07,06,07,46,14.30
2008,07,06,07,47,14.30
2008,07,06,07,48,14.30
2008,07,06,07,49,14.30
2008,07,06,07,50,14.30
2008,07,06,07,51,14.30
2008,07,06,07,52,14.30
2008,07,06,07,53,14.30
2008,07,06,07,54,14.30
2008,07,06,07,55,14.30
2008,07,06,07,56,14.30
2008,07,06,07,57,14.30
2008,07,06,07,58,14.30
2008,07,06,07,59,14.40
2008,07,06,08,00,14.40
2008,07,06,08,01,14.40
2008,07,06,08,02,14.50
2008,07,06,08,03,14.50
2008,07,06,08,04,14.50
2008,07,06,08,05,14.50
2008,07,06,08,06,14.50
2008,07,06,08,07,14.60
2008,07,06,08,08,14.60
2008,07,06,08,09,14.60
2008,07,06,08,10,14.60
2008,07,06,08,11,14.60
2008,07,06,08,12,14.70
2008,07,06,08,13,14.70
2008,07,06,08,14,14.70
2008,07,06,08,15,14.80
2008,07,06,08,16,14.80
2008,07,06,08,17,14.80
2008,07,06,08,18,14.80
2008,07,06,08,19,14.80
2008,07,06,08,20,14.80
2008,07,06,08,21,14.80
2008,07,06,08,22,14.80
2008,07,06,08,23,14.90
2008,07,06,08,24,14.90
2008,07,06,08,25,14.90
2008,07,06,08,26,15.00
2008,07,06,08,27,15.00
2008,07,06,08,28,15.00
2008,07,06,08,29,15.00
2008,07,06,08,30,15.00
2008,07,06,08,31,15.10
2008,07,06,08,32,15.10
2008,07,06,08,33,15.10
2008,07,06,08,34,15.20
2008,07,06,08,35,15.20
2008,07,06,08,36,15.20
2008,07,06,08,37,15.30
2008,07,06,08,38,15.30
2008,07,06,08,39,15.30
2008,07,06,08,40,15.40
2008,07,06,08,41,15.40
2008,07,06,08,42,15.50
2008,07,06,08,43,15.50
2008,07,06,08,44,15.50
2008,07,06,08,45,15.50
2008,07,06,08,46,15.50
2008,07,06,08,47,15.50
2008,07,06,08,48,15.50
2008,07,06,08,49,15.50
2008,07,06,08,50,15.50
2008,07,06,08,51,15.50
2008,07,06,08,52,15.50
2008,07,06,08,53,15.60
2008,07,06,08,54,15.60
2008,07,06,08,55,15.60
2008,07,06,08,56,15.60
2008,07,06,08,57,15.60
2008,07,06,08,58,15.60
2008,07,06,08,59,15.60
2008,07,06,09,00,15.60
2008,07,06,09,01,15.70
2008,07,06,09,02,15.70
2008,07,06,09,03,15.80
2008,07,06,09,04,15.80
2008,07,06,09,05,15.80
2008,07,06,09,06,15.90
2008,07,06,09,07,15.90
2008,07,06,09,08,16.10
2008,07,06,09,09,16.10
2008,07,06,09,10,16.10
2008,07,06,09,11,16.10
2008,07,06,09,12,16.10
2008,07,06,09,13,16.10
2008,07,06,09,14,16.10
2008,07,06,09,15,16.10
2008,07,06,09,16,16.10
2008,07,06,09,17,16.10
2008,07,06,09,18,16.10
2008,07,06,09,19,16.20
2008,07,06,09,20,16.20
2008,07,06,09,21,16.20
2008,07,06,09,22,16.20
2008,07,06,09,23,16.30
2008,07,06,09,24,16.30
2008,07,06,09,25,16.40
2008,07,06,09,26,16.40
2008,07,06,09,27,16.40
2008,07,06,09,28,16.50
2008,07,06,09,29,16.60
2008,07,06,09,30,16.60
2008,07,06,09,31,16.70
2008,07,06,09,32,16.70
2008,07,06,09,33,16.70
2008,07,06,09,34,16.70
2008,07,06,09,35,16.70
2008,07,06,09,36,16.70
2008,07,06,09,37,16.70
2008,07,06,09,38,16.70
2008,07,06,09,39,16.80
2008,07,06,09,40,16.90
2008,07,06,09,41,16.90
2008,07,06,09,42,16.90
2008,07,06,09,43,16.90
2008,07,06,09,44,17.00
2008,07,06,09,45,17.00
2008,07,06,09,46,17.00
2008,07,06,09,47,17.00
2008,07,06,09,48,17.10
2008,07,06,09,49,17.20
2008,07,06,09,50,17.30
2008,07,06,09,51,17.30
2008,07,06,09,52,17.40
2008,07,06,09,53,17.40
2008,07,06,09,54,17.50
2008,07,06,09,55,17.50
2008,07,06,09,56,17.50
2008,07,06,09,57,17.50
2008,07,06,09,58,17.50
2008,07,06,09,59,17.60
2008,07,06,10,00,17.70
2008,07,06,10,01,17.70
2008,07,06,10,02,17.80
2008,07,06,10,03,17.90
2008,07,06,10,04,17.90
2008,07,06,10,05,17.80
2008,07,06,10,06,17.70
2008,07,06,10,07,17.70
2008,07,06,10,08,17.70
2008,07,06,10,09,17.80
2008,07,06,10,10,17.80
2008,07,06,10,11,17.80
2008,07,06,10,12,17.80
2008,07,06,10,13,17.80
2008,07,06,10,14,17.80
2008,07,06,10,15,17.90
2008,07,06,10,16,17.90
2008,07,06,10,17,17.90
2008,07,06,10,18,18.00
2008,07,06,10,19,18.10
2008,07,06,10,20,18.20
2008,07,06,10,21,18.30
2008,07,06,10,22,18.50
2008,07,06,10,23,18.70
2008,07,06,10,24,18.70
2008,07,06,10,25,18.70
2008,07,06,10,26,18.70
2008,07,06,10,27,18.70
2008,07,06,10,28,18.80
2008,07,06,10,29,18.90
2008,07,06,10,30,18.90
2008,07,06,10,31,18.70
2008,07,06,10,32,18.70
2008,07,06,10,33,18.70
2008,07,06,10,34,18.80
2008,07,06,10,35,18.90
2008,07,06,10,36,18.90
2008,07,06,10,37,18.90
2008,07,06,10,38,18.90
2008,07,06,10,39,18.90
2008,07,06,10,40,18.90
2008,07,06,10,41,18.90
2008,07,06,10,42,18.90
2008,07,06,10,43,18.90
2008,07,06,10,44,18.90
2008,07,06,10,45,18.90
2008,07,06,10,46,18.90
2008,07,06,10,47,18.90
2008,07,06,10,48,18.80
2008,07,06,10,49,18.80
2008,07,06,10,50,18.70
2008,07,06,10,51,18.80
2008,07,06,10,52,18.80
2008,07,06,10,53,18.70
2008,07,06,10,54,18.70
2008,07,06,10,55,18.70
2008,07,06,10,56,18.60
2008,07,06,10,57,18.60
2008,07,06,10,58,18.60
2008,07,06,10,59,18.70
2008,07,06,11,00,18.80
2008,07,06,11,01,18.90
2008,07,06,11,02,19.00
2008,07,06,11,03,19.20
2008,07,06,11,04,19.40
2008,07,06,11,05,19.40
2008,07,06,11,06,19.50
2008,07,06,11,07,19.60
2008,07,06,11,08,19.50
2008,07,06,11,09,19.50
2008,07,06,11,10,19.50
2008,07,06,11,11,19.60
2008,07,06,11,12,19.60
2008,07,06,11,13,19.60
2008,07,06,11,14,19.70
2008,07,06,11,15,19.80
2008,07,06,11,16,19.80
2008,07,06,11,17,19.70
2008,07,06,11,18,19.60
2008,07,06,11,19,19.40
2008,07,06,11,20,19.40
2008,07,06,11,21,19.40
2008,07,06,11,22,19.50
2008,07,06,11,23,19.60
2008,07,06,11,24,19.70
2008,07,06,11,25,19.60
2008,07,06,11,26,19.60
2008,07,06,11,27,19.60
2008,07,06,11,28,19.60
2008,07,06,11,29,19.60
2008,07,06,11,30,19.60
2008,07,06,11,31,19.60
2008,07,06,11,32,19.70
2008,07,06,11,33,19.80
2008,07,06,11,34,19.80
2008,07,06,11,35,19.80
2008,07,06,11,36,19.80
2008,07,06,11,37,19.90
2008,07,06,11,38,19.90
2008,07,06,11,39,19.90
2008,07,06,11,40,19.90
2008,07,06,11,41,19.80
2008,07,06,11,42,19.80
2008,07,06,11,43,19.80
2008,07,06,11,44,19.80
2008,07,06,11,45,19.70
2008,07,06,11,46,19.70
2008,07,06,11,47,19.70
2008,07,06,11,48,19.70
2008,07,06,11,49,19.80
2008,07,06,11,50,19.90
2008,07,06,11,51,19.90
2008,07,06,11,52,19.90
2008,07,06,11,53,20.00
2008,07,06,11,54,20.10
2008,07,06,11,55,20.10
2008,07,06,11,56,20.10
2008,07,06,11,57,20.10
2008,07,06,11,58,20.20
2008,07,06,11,59,20.20
2008,07,06,12,00,20.10
2008,07,06,12,01,20.10
2008,07,06,12,02,20.20
2008,07,06,12,03,20.10
2008,07,06,12,04,20.10
2008,07,06,12,05,20.20
2008,07,06,12,06,20.30
2008,07,06,12,07,20.40
2008,07,06,12,08,20.40
2008,07,06,12,09,20.40
2008,07,06,12,10,20.40
2008,07,06,12,11,20.40
2008,07,06,12,12,20.40
2008,07,06,12,13,20.40
2008,07,06,12,14,20.40
2008,07,06,12,15,20.50
2008,07,06,12,16,20.50
2008,07,06,12,17,20.50
2008,07,06,12,18,20.50
2008,07,06,12,19,20.60
2008,07,06,12,20,20.60
2008,07,06,12,21,20.70
2008,07,06,12,22,20.70
2008,07,06,12,23,20.90
2008,07,06,12,24,20.90
2008,07,06,12,25,20.90
2008,07,06,12,26,20.90
2008,07,06,12,27,20.90
2008,07,06,12,28,20.80
2008,07,06,12,29,20.80
2008,07,06,12,30,20.70
2008,07,06,12,31,20.60
2008,07,06,12,32,20.70
2008,07,06,12,33,20.70
2008,07,06,12,34,20.60
2008,07,06,12,35,20.50
2008,07,06,12,36,20.30
2008,07,06,12,37,20.30
2008,07,06,12,38,20.30
2008,07,06,12,39,20.30
2008,07,06,12,40,20.30
2008,07,06,12,41,20.30
2008,07,06,12,42,20.30
2008,07,06,12,43,20.20
2008,07,06,12,44,20.20
2008,07,06,12,45,20.20
2008,07,06,12,46,20.20
2008,07,06,12,47,20.20
2008,07,06,12,48,20.40
2008,07,06,12,49,20.60
2008,07,06,12,50,20.70
2008,07,06,12,51,20.70
2008,07,06,12,52,20.60
2008,07,06,12,53,20.60
2008,07,06,12,54,20.70
2008,07,06,12,55,20.80
2008,07,06,12,56,21.00
2008,07,06,12,57,21.10
2008,07,06,12,58,21.20
2008,07,06,12,59,21.20
2008,07,06,13,00,21.20
2008,07,06,13,01,21.10
2008,07,06,13,02,21.10
2008,07,06,13,03,20.90
2008,07,06,13,04,20.80
2008,07,06,13,05,20.70
2008,07,06,13,06,20.70
2008,07,06,13,07,20.80
2008,07,06,13,08,21.00
2008,07,06,13,09,20.90
2008,07,06,13,10,20.90
2008,07,06,13,11,20.90
2008,07,06,13,12,20.90
2008,07,06,13,13,20.90
2008,07,06,13,14,21.00
2008,07,06,13,15,21.10
2008,07,06,13,16,21.10
2008,07,06,13,17,21.10
2008,07,06,13,18,21.10
2008,07,06,13,19,21.10
2008,07,06,13,20,20.90
2008,07,06,13,21,20.70
2008,07,06,13,22,20.60
2008,07,06,13,23,20.50
2008,07,06,13,24,20.30
2008,07,06,13,25,20.20
2008,07,06,13,26,20.00
2008,07,06,13,27,20.00
2008,07,06,13,28,20.10
2008,07,06,13,29,20.20
2008,07,06,13,30,20.20
2008,07,06,13,31,20.30
2008,07,06,13,32,20.40
2008,07,06,13,33,20.40
2008,07,06,13,34,20.30
2008,07,06,13,35,20.00
2008,07,06,13,36,19.90
2008,07,06,13,37,20.00
2008,07,06,13,38,20.20
2008,07,06,13,39,20.40
2008,07,06,13,40,20.50
2008,07,06,13,41,20.70
2008,07,06,13,42,20.80
2008,07,06,13,43,21.00
2008,07,06,13,44,21.10
2008,07,06,13,45,21.30
2008,07,06,13,46,21.30
2008,07,06,13,47,21.40
2008,07,06,13,48,21.30
2008,07,06,13,49,21.10
2008,07,06,13,50,21.00
2008,07,06,13,51,20.90
2008,07,06,13,52,20.80
2008,07,06,13,53,20.70
2008,07,06,13,54,20.70
2008,07,06,13,55,20.60
2008,07,06,13,56,20.60
2008,07,06,13,57,20.50
2008,07,06,13,58,20.40
2008,07,06,13,59,20.40
2008,07,06,14,00,20.30
2008,07,06,14,01,20.10
2008,07,06,14,02,19.90
2008,07,06,14,03,19.80
2008,07,06,14,04,19.70
2008,07,06,14,05,19.80
2008,07,06,14,06,19.80
2008,07,06,14,07,19.80
2008,07,06,14,08,19.90
2008,07,06,14,09,19.90
2008,07,06,14,10,20.00
2008,07,06,14,11,20.20
2008,07,06,14,12,20.20
2008,07,06,14,13,20.20
2008,07,06,14,14,20.20
2008,07,06,14,15,20.20
2008,07,06,14,16,20.10
2008,07,06,14,17,20.00
2008,07,06,14,18,19.90
2008,07,06,14,19,19.90
2008,07,06,14,20,19.90
2008,07,06,14,21,19.90
2008,07,06,14,22,19.90
2008,07,06,14,23,19.70
2008,07,06,14,24,19.60
2008,07,06,14,25,19.70
2008,07,06,14,26,19.70
2008,07,06,14,27,19.80
2008,07,06,14,28,19.80
2008,07,06,14,29,19.80
2008,07,06,14,30,19.80
2008,07,06,14,31,19.80
2008,07,06,14,32,19.80
2008,07,06,14,33,19.80
2008,07,06,14,34,19.80
2008,07,06,14,35,19.80
2008,07,06,14,36,19.70
2008,07,06,14,37,19.70
2008,07,06,14,38,19.60
2008,07,06,14,39,19.60
2008,07,06,14,40,19.50
2008,07,06,14,41,19.50
2008,07,06,14,42,19.40
2008,07,06,14,43,19.30
2008,07,06,14,44,19.30
2008,07,06,14,45,19.30
2008,07,06,14,46,19.30
2008,07,06,14,47,19.40
2008,07,06,14,48,19.40
2008,07,06,14,49,19.30
2008,07,06,14,50,19.40
2008,07,06,14,51,19.40
2008,07,06,14,52,19.50
2008,07,06,14,53,19.60
2008,07,06,14,54,19.60
2008,07,06,14,55,19.70
2008,07,06,14,56,19.70
2008,07,06,14,57,19.80
2008,07,06,14,58,19.80
2008,07,06,14,59,19.70
2008,07,06,15,00,19.70
2008,07,06,15,01,19.60
2008,07,06,15,02,19.60
2008,07,06,15,03,19.60
2008,07,06,15,04,19.60
2008,07,06,15,05,19.70
2008,07,06,15,06,19.80
2008,07,06,15,07,19.90
2008,07,06,15,08,20.00
2008,07,06,15,09,20.10
2008,07,06,15,10,20.20
2008,07,06,15,11,20.20
2008,07,06,15,12,20.30
2008,07,06,15,13,20.40
2008,07,06,15,14,20.40
2008,07,06,15,15,20.40
2008,07,06,15,16,20.40
2008,07,06,15,17,20.40
2008,07,06,15,18,20.30
2008,07,06,15,19,20.30
2008,07,06,15,20,20.30
2008,07,06,15,21,20.20
2008,07,06,15,22,20.20
2008,07,06,15,23,20.20
2008,07,06,15,24,20.30
2008,07,06,15,25,20.30
2008,07,06,15,26,20.40
2008,07,06,15,27,20.40
2008,07,06,15,28,20.30
2008,07,06,15,29,20.30
2008,07,06,15,30,20.20
2008,07,06,15,31,20.10
2008,07,06,15,32,20.00
2008,07,06,15,33,19.90
2008,07,06,15,34,19.90
2008,07,06,15,35,19.80
2008,07,06,15,36,19.80
2008,07,06,15,37,19.80
2008,07,06,15,38,19.90
2008,07,06,15,39,20.00
2008,07,06,15,40,20.20
2008,07,06,15,41,20.20
2008,07,06,15,42,20.30
2008,07,06,15,43,20.40
2008,07,06,15,44,20.50
2008,07,06,15,45,20.50
2008,07,06,15,46,20.60
2008,07,06,15,47,20.50
2008,07,06,15,48,20.40
2008,07,06,15,49,20.40
2008,07,06,15,50,20.40
2008,07,06,15,51,20.40
2008,07,06,15,52,20.40
2008,07,06,15,53,20.40
2008,07,06,15,54,20.30
2008,07,06,15,55,20.30
2008,07,06,15,56,20.20
2008,07,06,15,57,20.20
2008,07,06,15,58,20.30
2008,07,06,15,59,20.40
2008,07,06,16,00,20.50
2008,07,06,16,01,20.60
2008,07,06,16,02,20.80
2008,07,06,16,03,20.80
2008,07,06,16,04,20.80
2008,07,06,16,05,20.80
2008,07,06,16,06,20.80
2008,07,06,16,07,20.70
2008,07,06,16,08,20.60
2008,07,06,16,09,20.60
2008,07,06,16,10,20.50
2008,07,06,16,11,20.50
2008,07,06,16,12,20.50
2008,07,06,16,13,20.50
2008,07,06,16,14,20.30
2008,07,06,16,15,20.30
2008,07,06,16,16,20.30
2008,07,06,16,17,20.30
2008,07,06,16,18,20.30
2008,07,06,16,19,20.30
2008,07,06,16,20,20.40
2008,07,06,16,21,20.50
2008,07,06,16,22,20.30
2008,07,06,16,23,20.20
2008,07,06,16,24,20.20
2008,07,06,16,25,20.10
2008,07,06,16,26,20.10
2008,07,06,16,27,20.10
2008,07,06,16,28,20.20
2008,07,06,16,29,20.20
2008,07,06,16,30,20.20
2008,07,06,16,31,20.20
2008,07,06,16,32,20.20
2008,07,06,16,33,20.20
2008,07,06,16,34,20.20
2008,07,06,16,35,20.20
2008,07,06,16,36,20.20
2008,07,06,16,37,20.20
2008,07,06,16,38,20.40
2008,07,06,16,39,20.50
2008,07,06,16,40,20.50
2008,07,06,16,41,20.40
2008,07,06,16,42,20.50
2008,07,06,16,43,20.50
2008,07,06,16,44,20.60
2008,07,06,16,45,20.60
2008,07,06,16,46,20.70
2008,07,06,16,47,20.80
2008,07,06,16,48,20.90
2008,07,06,16,49,20.90
2008,07,06,16,50,20.90
2008,07,06,16,51,20.90
2008,07,06,16,52,20.90
2008,07,06,16,53,20.90
2008,07,06,16,54,20.90
2008,07,06,16,55,20.70
2008,07,06,16,56,20.50
2008,07,06,16,57,20.40
2008,07,06,16,58,20.30
2008,07,06,16,59,20.20
2008,07,06,17,00,20.20
2008,07,06,17,01,20.20
2008,07,06,17,02,20.20
2008,07,06,17,03,20.20
2008,07,06,17,04,20.20
2008,07,06,17,05,20.20
2008,07,06,17,06,20.20
2008,07,06,17,07,20.20
2008,07,06,17,08,20.20
2008,07,06,17,09,20.30
2008,07,06,17,10,20.30
2008,07,06,17,11,20.30
2008,07,06,17,12,20.30
2008,07,06,17,13,20.40
2008,07,06,17,14,20.50
2008,07,06,17,15,20.50
2008,07,06,17,16,20.50
2008,07,06,17,17,20.50
2008,07,06,17,18,20.50
2008,07,06,17,19,20.60